Erzurum, Turkey

9:40 PM +03 on May 23, 2018 (GMT +0300)
Erzurum

Weather History for LTCE - November, 2013

Change the Weather History Date:

Monday, November 25, 2013

  Actual Average Record
Temperature  
Mean Temperature 36 °F -  
Max Temperature 43 °F 33 °F 57 °F (1998)
Min Temperature 28 °F 20 °F -4 °F (2011)
Degree Days  
Heating Degree Days 30    
Moisture  
Dew Point 35 °F    
Average Humidity 88    
Maximum Humidity 100    
Minimum Humidity 76    
Precipitation  
Precipitation 0.02 in 0.03 in - ()
Sea Level Pressure  
Sea Level Pressure 30.11 in    
Wind  
Wind Speed 2 mph ()    
Max Wind Speed 10 mph    
Max Gust Speed -    
Visibility 6.3 miles    
Events Rain    
Averages and records for this station are not official NWS values.
T = Trace of Precipitation, MM = Missing Value Source: Averaged Metar Reports

Daily Weather History Graph

Daily Weather History Graph

Search for Another Location

Airport or City:

Astronomy

Nov. 25, 2013 Rise Set
Actual Time 6:11 AM EET 3:52 PM EET
Civil Twilight 5:41 AM EET 4:22 PM EET
Nautical Twilight 5:08 AM EET 4:55 PM EET
Astronomical Twilight 4:36 AM EET 5:28 PM EET
Moon 10:55 PM EET (11/25) 11:18 AM EET (11/25)
Length of Visible Light 10h 40m
Length of Day
9h 41m
Waning Gibbous, 54% of the Moon is Illuminated
Nov 25
Waning Gibbous
Nov 25
Last Quarter
Dec 3
New
Dec 9
First Quarter
Dec 17
Full

Hourly Weather History & Observations

Time (EET) Temp. Windchill Dew Point Humidity Pressure Visibility Wind Dir Wind Speed Gust Speed Precip Events Conditions
12:20 AM 32.0 °F - 26.6 °F 80% 30.12 in 6.2 mi Variable 1.2 mph - N/A   Scattered Clouds
12:50 AM 32.0 °F - 26.6 °F 80% 30.12 in 6.2 mi Calm Calm - N/A   Scattered Clouds
1:20 AM 32.0 °F - 28.4 °F 87% 30.12 in 6.2 mi Calm Calm - N/A   Scattered Clouds
1:50 AM 32.0 °F - 28.4 °F 87% 30.09 in 6.2 mi Calm Calm - N/A   Scattered Clouds
2:00 AM 33 °F - 28 °F 77%  in 12 mi Calm Calm - -   Partly Cloudy
2:20 AM 32.0 °F - 28.4 °F 87% 30.09 in 6.2 mi Variable 1.2 mph - N/A   Scattered Clouds
2:50 AM 32.0 °F - 28.4 °F 87% 30.09 in 6.2 mi Variable 2.3 mph - N/A   Scattered Clouds
3:20 AM 32.0 °F - 28.4 °F 87% 30.09 in 6.2 mi Variable 2.3 mph - N/A   Scattered Clouds
3:50 AM 33.8 °F - 30.2 °F 87% 30.09 in 6.2 mi Variable 1.2 mph - N/A   Scattered Clouds
4:20 AM 33.8 °F - 30.2 °F 87% 30.09 in 6.2 mi Variable 2.3 mph - N/A   Scattered Clouds
4:32 AM 33.8 °F 30.8 °F 32.0 °F 93% 30.09 in 6.2 mi West 3.5 mph - N/A Rain Light Rain
4:50 AM 33.8 °F 29.6 °F 32.0 °F 93% 30.12 in 6.2 mi West 4.6 mph - N/A Rain Light Rain
5:00 AM 33 °F - 31 °F 90%  in 12 mi West 4.6 mph - - Rain Light Rain
5:20 AM 35.6 °F 31.7 °F 33.8 °F 93% 30.12 in 6.2 mi West 4.6 mph - N/A Rain Light Rain
5:50 AM 35.6 °F - 33.8 °F 93% 30.12 in 3.7 mi Variable 2.3 mph - N/A Rain Light Rain
6:20 AM 35.6 °F - 33.8 °F 93% 30.12 in 3.7 mi Calm Calm - N/A Rain Light Rain
6:35 AM 35.6 °F - 33.8 °F 93% 30.12 in 3.7 mi Calm Calm - N/A   Mostly Cloudy
6:50 AM 35.6 °F - 33.8 °F 93% 30.12 in 3.7 mi SE 2.3 mph - N/A   Mostly Cloudy
7:20 AM 35.6 °F - 35.6 °F 100% 30.12 in 3.7 mi Variable 1.2 mph - N/A   Mostly Cloudy
7:50 AM 37.4 °F - 35.6 °F 93% 30.12 in 3.7 mi Calm Calm - N/A Rain Light Rain
8:00 AM 37 °F - 35 °F 92%  in 4 mi Calm Calm - - Rain Light Rain
8:20 AM 37.4 °F - 35.6 °F 93% 30.12 in 3.7 mi Calm Calm - N/A Rain Light Rain
8:50 AM 37.4 °F 33.8 °F 35.6 °F 93% 30.12 in 3.7 mi North 4.6 mph - N/A Rain Light Rain
9:20 AM 37.4 °F - 37.4 °F 100% 30.12 in 3.7 mi Variable 2.3 mph - N/A Rain Light Rain
9:50 AM 39.2 °F - 37.4 °F 93% 30.12 in 4.3 mi Calm Calm - N/A   Mostly Cloudy
10:20 AM 41.0 °F - 39.2 °F 93% 30.12 in 6.2 mi Calm Calm - N/A   Mostly Cloudy
10:50 AM 42.8 °F 41.1 °F 37.4 °F 81% 30.12 in 6.2 mi NNE 3.5 mph - N/A   Mostly Cloudy
11:00 AM 42 °F - 37 °F 78%  in 6 mi NNE 3.5 mph - -   Partly Cloudy
11:20 AM 42.8 °F - 37.4 °F 81% 30.09 in 6.2 mi Variable 1.2 mph - N/A   Mostly Cloudy
11:50 AM 42.8 °F 41.1 °F 39.2 °F 87% 30.09 in 6.2 mi NNW 3.5 mph - N/A   Mostly Cloudy
12:20 PM 42.8 °F 40.1 °F 39.2 °F 87% 30.09 in 6.2 mi NNW 4.6 mph - N/A   Mostly Cloudy
12:50 PM 42.8 °F 40.1 °F 39.2 °F 87% 30.09 in 6.2 mi WNW 4.6 mph - N/A   Mostly Cloudy
1:20 PM 44.6 °F 42.2 °F 39.2 °F 81% 30.09 in 6.2 mi West 4.6 mph - N/A   Mostly Cloudy
1:50 PM 42.8 °F 38.0 °F 37.4 °F 81% 30.09 in 6.2 mi WSW 8.1 mph - N/A   Mostly Cloudy
1:56 PM 44.6 °F 39.7 °F 37.4 °F 76% 30.09 in 6.2 mi WSW 9.2 mph - N/A Rain Light Rain
2:00 PM 43 °F - 38 °F 78%  in 12 mi WSW 8.1 mph - - Rain Light Rain
2:20 PM 44.6 °F 39.2 °F 37.4 °F 76% 30.09 in 6.2 mi SW 10.4 mph - N/A   Mostly Cloudy
2:50 PM 42.8 °F 38.0 °F 37.4 °F 81% 30.12 in 6.2 mi SW 8.1 mph - N/A   Mostly Cloudy
3:20 PM 42.8 °F 39.3 °F 37.4 °F 81% 30.12 in 6.2 mi WSW 5.8 mph - N/A   Mostly Cloudy
3:50 PM 42.8 °F 41.1 °F 37.4 °F 81% 30.12 in 6.2 mi SW 3.5 mph - N/A   Mostly Cloudy
4:20 PM 41.0 °F 38.0 °F 35.6 °F 81% 30.12 in 6.2 mi West 4.6 mph - N/A   Mostly Cloudy
4:50 PM 39.2 °F - 37.4 °F 93% 30.12 in 6.2 mi Variable 1.2 mph - N/A   Mostly Cloudy
5:00 PM 40 °F - 37 °F 86%  in 12 mi WSW 1.2 mph - -   Partly Cloudy
5:20 PM 41.0 °F - 37.4 °F 87% 30.12 in 6.2 mi West 2.3 mph - N/A   Mostly Cloudy
5:50 PM 41.0 °F 39.0 °F 37.4 °F 87% 30.12 in 6.2 mi West 3.5 mph - N/A   Mostly Cloudy
6:20 PM 39.2 °F 37.0 °F 37.4 °F 93% 30.12 in 6.2 mi West 3.5 mph - N/A   Mostly Cloudy
6:50 PM 39.2 °F 35.9 °F 37.4 °F 93% 30.12 in 6.2 mi North 4.6 mph - N/A   Mostly Cloudy
7:20 PM 39.2 °F 35.9 °F 37.4 °F 93% 30.12 in 6.2 mi North 4.6 mph - N/A   Mostly Cloudy
7:50 PM 41.0 °F 39.0 °F 37.4 °F 87% 30.12 in 6.2 mi NNW 3.5 mph - N/A   Mostly Cloudy
8:00 PM 40 °F - 37 °F 86%  in 12 mi NNW 3.5 mph - -   Partly Cloudy
8:20 PM 39.2 °F - 37.4 °F 93% 30.12 in 6.2 mi Variable 2.3 mph - N/A   Mostly Cloudy
8:50 PM 39.2 °F - 37.4 °F 93% 30.12 in 6.2 mi Variable 1.2 mph - N/A   Mostly Cloudy
9:20 PM 39.2 °F - 37.4 °F 93% 30.12 in 6.2 mi Variable 2.3 mph - N/A   Mostly Cloudy
9:50 PM 37.4 °F 34.9 °F 37.4 °F 100% 30.12 in 6.2 mi West 3.5 mph - N/A   Mostly Cloudy
10:20 PM 39.2 °F 35.9 °F 37.4 °F 93% 30.12 in 6.2 mi WNW 4.6 mph - N/A   Mostly Cloudy
10:50 PM 39.2 °F 35.9 °F 37.4 °F 93% 30.12 in 6.2 mi West 4.6 mph - N/A   Scattered Clouds
11:00 PM 38 °F - 37 °F 96%  in 12 mi West 4.6 mph - -   Partly Cloudy
11:20 PM 39.2 °F 37.0 °F 37.4 °F 93% 30.12 in 6.2 mi WSW 3.5 mph - N/A   Scattered Clouds
11:50 PM 37.4 °F - 35.6 °F 93% 30.12 in - Variable 2.3 mph - N/A   Clear